Weather History for KAQP - February, 2012

Change the Weather History Date:

Thursday, February 9, 2012

  Actual Average Record
Temperature  
Mean Temperature 27 °F -  
Max Temperature 44 °F 23 °F 44 °F (2012)
Min Temperature 10 °F 7 °F -14 °F (2011)
Degree Days  
Heating Degree Days 38    
Moisture  
Dew Point 14 °F    
Average Humidity 68    
Maximum Humidity 100    
Minimum Humidity 34    
Precipitation  
Precipitation 0.00 in - - ()
Sea Level Pressure  
Sea Level Pressure 30.02 in    
Wind  
Wind Speed 10 mph (SW)    
Max Wind Speed 32 mph    
Max Gust Speed 40 mph    
Visibility 10 miles    
Events      
Averages and records for this station are not official NWS values.
T = Trace of Precipitation, MM = Missing Value Source: NWS Daily Summary

Daily Weather History Graph

Daily Weather History Graph

Search for Another Location

Airport or City:

Trip Planner

Search our weather history database for the weather conditions in past years. The results will help you decide how hot, cold, wet, or windy it might be!

Date:

Astronomy

Feb. 09, 2012 Rise Set
Actual Time 7:34 AM CST 5:42 PM CST
Civil Twilight 7:03 AM CST 6:13 PM CST
Nautical Twilight 6:29 AM CST 6:47 PM CST
Astronomical Twilight 5:54 AM CST 7:22 PM CST
Moon 8:22 PM CST (2/9) 8:02 AM CST (2/9)
Length of Visible Light 11h 09m
Length of Day
10h 07m
Waning Gibbous, 96% of the Moon is Illuminated
Feb 9
Waning Gibbous
Feb 14
Last Quarter
Feb 21
New
Feb 29
First Quarter
Mar 8
Full

Hourly Weather History & Observations

Time (CST) Temp. Windchill Dew Point Humidity Pressure Visibility Wind Dir Wind Speed Gust Speed Precip Events Conditions
12:14 AM 15.8 °F 8.6 °F 8.6 °F 73% 30.22 in 10.0 mi SSW 4.6 mph - N/A   Clear
12:35 AM 15.8 °F 7.2 °F 8.6 °F 73% 30.20 in 10.0 mi South 5.8 mph - N/A   Clear
12:55 AM 14.0 °F 6.5 °F 8.6 °F 79% 30.20 in 10.0 mi South 4.6 mph - N/A   Clear
1:15 AM 14.0 °F 6.5 °F 6.8 °F 73% 30.19 in 10.0 mi South 4.6 mph - N/A   Clear
1:35 AM 12.2 °F 4.3 °F 6.8 °F 79% 30.19 in 10.0 mi South 4.6 mph - N/A   Clear
1:55 AM 12.2 °F 4.3 °F 6.8 °F 79% 30.18 in 10.0 mi South 4.6 mph - N/A   Clear
2:15 AM 12.2 °F 4.3 °F 6.8 °F 79% 30.18 in 10.0 mi South 4.6 mph - N/A   Clear
2:35 AM 14.0 °F 8.2 °F 8.6 °F 79% 30.17 in 10.0 mi South 3.5 mph - N/A   Clear
2:54 AM 12.2 °F 4.3 °F 6.8 °F 79% 30.16 in 10.0 mi South 4.6 mph - N/A   Clear
3:15 AM 10.4 °F 0.8 °F 6.8 °F 85% 30.15 in 10.0 mi South 5.8 mph - N/A   Clear
3:35 AM 10.4 °F 0.8 °F 6.8 °F 85% 30.14 in 10.0 mi South 5.8 mph - N/A   Clear
3:55 AM 10.4 °F 2.2 °F 6.8 °F 85% 30.13 in 10.0 mi South 4.6 mph - N/A   Clear
4:15 AM 10.4 °F 2.2 °F 6.8 °F 85% 30.12 in 10.0 mi South 4.6 mph - N/A   Clear
4:35 AM 10.4 °F 2.2 °F 6.8 °F 85% 30.12 in 10.0 mi South 4.6 mph - N/A   Clear
4:55 AM 10.4 °F 4.0 °F 8.6 °F 92% 30.12 in 10.0 mi South 3.5 mph - N/A   Clear
5:15 AM 10.4 °F -0.4 °F 8.6 °F 92% 30.11 in 10.0 mi South 6.9 mph - N/A   Clear
5:35 AM 12.2 °F 4.3 °F 10.4 °F 92% 30.10 in 10.0 mi South 4.6 mph - N/A   Clear
5:55 AM 10.4 °F 2.2 °F 8.6 °F 92% 30.09 in 10.0 mi South 4.6 mph - N/A   Clear
6:15 AM 12.2 °F 2.9 °F 10.4 °F 92% 30.08 in 10.0 mi SSW 5.8 mph - N/A   Clear
6:35 AM 14.0 °F 3.9 °F 12.2 °F 93% 30.08 in 10.0 mi SSW 6.9 mph - N/A   Clear
6:55 AM 12.2 °F 0.7 °F 12.2 °F 100% 30.07 in 10.0 mi South 8.1 mph - N/A   Clear
7:15 AM 12.2 °F 1.7 °F 10.4 °F 92% 30.07 in 10.0 mi South 6.9 mph - N/A   Clear
7:35 AM 12.2 °F 0.7 °F 10.4 °F 92% 30.06 in 10.0 mi South 8.1 mph - N/A   Clear
7:55 AM 12.2 °F 1.7 °F 10.4 °F 92% 30.06 in 10.0 mi South 6.9 mph - N/A   Clear
8:15 AM 14.0 °F 3.9 °F 12.2 °F 93% 30.06 in 10.0 mi South 6.9 mph - N/A   Clear
8:35 AM 15.8 °F 6.1 °F 12.2 °F 86% 30.05 in 10.0 mi South 6.9 mph - N/A   Clear
8:58 AM 17.6 °F 7.3 °F 15.8 °F 93% 30.03 in 10.0 mi South 8.1 mph - N/A   Clear
9:15 AM 19.4 °F 9.5 °F 15.8 °F 86% 30.03 in 10.0 mi SSW 8.1 mph - N/A   Clear
9:39 AM 21.2 °F 13.6 °F 17.6 °F 86% 30.02 in 10.0 mi SSW 5.8 mph - N/A   Clear
9:55 AM 23.0 °F 13.1 °F 17.6 °F 80% 30.01 in 10.0 mi SSW 9.2 mph - N/A   Clear
10:15 AM 26.6 °F 18.2 °F 19.4 °F 74% 29.99 in 10.0 mi SSW 8.1 mph - N/A   Clear
10:35 AM 28.4 °F 21.2 °F 19.4 °F 69% 29.99 in 10.0 mi SSW 6.9 mph - N/A   Clear
10:55 AM 32.0 °F 24.2 °F 19.4 °F 60% 29.97 in 10.0 mi SW 9.2 mph - N/A   Clear
11:15 AM 33.8 °F 25.8 °F 19.4 °F 56% 29.96 in 10.0 mi SW 10.4 mph - N/A   Clear
11:35 AM 35.6 °F 27.5 °F 21.2 °F 56% 29.95 in 10.0 mi SW 11.5 mph 16.1 mph N/A   Clear
11:55 AM 37.4 °F 28.2 °F 19.4 °F 48% 29.94 in 10.0 mi SW 16.1 mph - N/A   Clear
12:15 PM 39.2 °F 30.5 °F 19.4 °F 45% 29.93 in 10.0 mi SW 16.1 mph - N/A   Clear
12:35 PM 39.2 °F 30.2 °F 19.4 °F 45% 29.92 in 10.0 mi SW 17.3 mph - N/A   Clear
12:55 PM 39.2 °F 29.8 °F 19.4 °F 45% 29.91 in 10.0 mi WSW 18.4 mph - N/A   Clear
1:15 PM 42.8 °F 33.5 °F 19.4 °F 39% 29.90 in 10.0 mi WSW 23.0 mph 26.5 mph N/A   Clear
1:35 PM 42.8 °F 35.1 °F 19.4 °F 39% 29.89 in 10.0 mi WSW 16.1 mph 25.3 mph N/A   Clear
1:55 PM 42.8 °F 34.5 °F 21.2 °F 42% 29.88 in 10.0 mi WSW 18.4 mph 21.9 mph N/A   Clear
2:15 PM 42.8 °F 34.3 °F 19.4 °F 39% 29.87 in 10.0 mi WSW 19.6 mph 24.2 mph N/A   Clear
2:35 PM 42.8 °F 35.1 °F 19.4 °F 39% 29.87 in 10.0 mi WSW 16.1 mph 23.0 mph N/A   Clear
2:55 PM 44.6 °F 37.4 °F 19.4 °F 37% 29.87 in 10.0 mi WSW 16.1 mph 20.7 mph N/A   Clear
3:15 PM 44.6 °F 37.8 °F 17.6 °F 34% 29.86 in 10.0 mi West 15.0 mph - N/A   Clear
3:35 PM 44.6 °F 36.4 °F 19.4 °F 37% 29.86 in 10.0 mi West 20.7 mph 27.6 mph N/A   Clear
3:55 PM 42.8 °F 33.5 °F 19.4 °F 39% 29.87 in 10.0 mi West 23.0 mph 28.8 mph N/A   Clear
4:15 PM 42.8 °F 34.3 °F 21.2 °F 42% 29.87 in 10.0 mi WNW 19.6 mph 28.8 mph N/A   Clear
4:35 PM 41.0 °F 32.8 °F 21.2 °F 45% 29.88 in 10.0 mi WNW 16.1 mph 21.9 mph N/A   Clear
4:55 PM 39.2 °F 30.5 °F 21.2 °F 49% 29.88 in 10.0 mi NW 16.1 mph - N/A   Clear
5:15 PM 39.2 °F 31.2 °F 21.2 °F 49% 29.89 in 10.0 mi NW 13.8 mph 23.0 mph N/A   Mostly Cloudy
5:35 PM 37.4 °F 24.8 °F 21.2 °F 52% 29.91 in 10.0 mi North 31.1 mph 36.8 mph N/A   Overcast
5:55 PM 30.2 °F 15.2 °F 21.2 °F 69% 29.94 in 10.0 mi North 29.9 mph 38.0 mph N/A   Overcast
6:15 PM 28.4 °F 13.8 °F 19.4 °F 69% 29.96 in 10.0 mi North 25.3 mph 35.7 mph N/A   Overcast
6:35 PM 26.6 °F 11.1 °F 19.4 °F 74% 29.98 in 10.0 mi NNW 26.5 mph 34.5 mph N/A   Overcast
6:54 PM 24.8 °F 9.0 °F 17.6 °F 74% 30.00 in 10.0 mi NNW 25.3 mph 31.1 mph N/A   Overcast
7:15 PM 23.0 °F 5.4 °F 15.8 °F 74% 30.01 in 10.0 mi NNW 29.9 mph 36.8 mph N/A   Overcast
7:35 PM 21.2 °F 4.2 °F 12.2 °F 68% 30.03 in 10.0 mi NNW 25.3 mph 34.5 mph N/A   Overcast
7:55 PM 19.4 °F 0.8 °F 8.6 °F 63% 30.05 in 10.0 mi NNW 28.8 mph 35.7 mph N/A   Overcast
8:15 PM 19.4 °F 1.8 °F 3.2 °F 49% 30.06 in 10.0 mi NNW 25.3 mph 35.7 mph N/A   Overcast
8:35 PM 17.6 °F -2.5 °F 1.4 °F 49% 30.07 in 10.0 mi NNW 32.2 mph 40.3 mph N/A   Overcast
8:55 PM 15.8 °F -2.7 °F 1.4 °F 53% 30.09 in 10.0 mi NNW 24.2 mph 32.2 mph N/A   Overcast
9:14 PM 12.2 °F -7.9 °F -0.4 °F 57% 30.11 in 10.0 mi NNW 25.3 mph 38.0 mph N/A   Scattered Clouds
9:35 PM 12.2 °F -8.2 °F -0.4 °F 57% 30.13 in 10.0 mi NNW 26.5 mph 36.8 mph N/A   Clear
9:54 PM 10.4 °F -10.3 °F 1.4 °F 67% 30.13 in 10.0 mi NNW 25.3 mph 32.2 mph N/A   Clear
10:14 PM 10.4 °F -9.9 °F 1.4 °F 67% 30.14 in 10.0 mi NNW 24.2 mph 32.2 mph N/A   Clear
10:35 PM 10.4 °F -8.2 °F 1.4 °F 67% 30.15 in 10.0 mi NNW 19.6 mph 31.1 mph N/A   Clear
10:55 PM 10.4 °F -8.2 °F -0.4 °F 62% 30.16 in 10.0 mi NNW 19.6 mph 26.5 mph N/A   Clear
11:15 PM 8.6 °F -11.4 °F -0.4 °F 67% 30.17 in 10.0 mi NNW 21.9 mph 33.4 mph N/A   Clear
11:35 PM 8.6 °F -11.9 °F -0.4 °F 67% 30.18 in 10.0 mi NNW 23.0 mph 31.1 mph N/A   Clear
11:55 PM 8.6 °F -12.3 °F -0.4 °F 67% 30.19 in 10.0 mi NNW 24.2 mph 32.2 mph N/A   Clear